﻿_id,日時,平均風速(m/s),平均風向,最大瞬間風速(m/s),最大風速時風向,気温(℃),湿度(%),10分間移動積算雨量(mm),1時間移動積算雨量(mm),日雨量(mm),累計雨量(mm)
1,2023-02-20T00:00:00,0.9,東南東,1.9,南,4.9,95.2,0,0,7.5,8
2,2023-02-20T00:01:00,0.9,東南東,1.9,南,4.8,95.1,0,0,0,8
3,2023-02-20T00:02:00,1,東南東,1.9,南,4.8,94.8,0,0,0,8
4,2023-02-20T00:03:00,1,東南東,1.9,南,4.7,94.7,0,0,0,8
5,2023-02-20T00:04:00,1.1,東,1.9,南,4.7,94.7,0,0,0,8
6,2023-02-20T00:05:00,1,東,1.9,南,4.7,95,0,0,0,8
7,2023-02-20T00:06:00,0.9,東,1.7,北東,4.8,95.2,0,0,0,8
8,2023-02-20T00:07:00,0.8,東北東,1.7,北東,4.8,95.3,0,0,0,8
9,2023-02-20T00:08:00,0.8,東北東,1.7,北東,4.8,95.2,0,0,0,8
10,2023-02-20T00:09:00,0.8,東北東,1.9,南東,4.8,95.2,0,0,0,8
11,2023-02-20T00:10:00,0.8,東,1.9,南東,4.7,95,0,0,0,8
12,2023-02-20T00:11:00,0.8,東,1.9,南東,4.7,95,0,0,0,8
13,2023-02-20T00:12:00,0.7,東,1.9,南東,4.8,95.1,0,0,0,8
14,2023-02-20T00:13:00,0.7,東,1.9,南東,4.7,94.9,0,0,0,8
15,2023-02-20T00:14:00,0.7,東,1.9,南東,4.6,94.7,0,0,0,8
16,2023-02-20T00:15:00,0.7,東,1.9,南東,4.6,95,0,0,0,8
17,2023-02-20T00:16:00,0.7,東南東,1.9,南東,4.7,95.1,0,0,0,8
18,2023-02-20T00:17:00,0.7,南東,1.9,南東,4.7,95.1,0,0,0,8
19,2023-02-20T00:18:00,0.7,南南東,1.9,南東,4.6,94.9,0,0,0,8
20,2023-02-20T00:19:00,0.7,南東,1.8,南東,4.6,94.9,0,0,0,8
21,2023-02-20T00:20:00,0.6,東南東,1.7,東南東,4.6,95.1,0,0,0,8
22,2023-02-20T00:21:00,0.6,東,1.2,東南東,4.6,95.1,0,0,0,8
23,2023-02-20T00:22:00,0.6,東,1.2,東南東,4.5,95,0,0,0,8
24,2023-02-20T00:23:00,0.7,東,1.6,東北東,4.5,94.9,0,0,0,8
25,2023-02-20T00:24:00,0.8,東,1.8,北東,4.5,94.8,0,0,0,8
26,2023-02-20T00:25:00,0.9,東,1.8,北東,4.5,94.9,0,0,0,8
27,2023-02-20T00:26:00,0.9,東北東,1.8,北東,4.4,94.9,0,0,0,8
28,2023-02-20T00:27:00,0.9,東北東,1.8,北東,4.5,95.1,0,0,0,8
29,2023-02-20T00:28:00,1,東北東,1.8,北東,4.4,95.1,0,0,0,8
30,2023-02-20T00:29:00,1,東北東,1.8,北東,4.5,95.1,0,0,0,8
31,2023-02-20T00:30:00,0.9,東北東,1.8,北東,4.4,95.1,0,0,0,8
32,2023-02-20T00:31:00,0.9,東北東,1.8,北東,4.4,94.9,0,0,0,8
33,2023-02-20T00:32:00,1,東北東,1.8,北東,4.5,95.2,0,0,0,8
34,2023-02-20T00:33:00,0.9,東北東,1.8,北東,4.5,95.3,0,0,0,8
35,2023-02-20T00:34:00,0.9,東,1.6,南,4.5,95.3,0,0,0,8
36,2023-02-20T00:35:00,0.7,東,1.6,南,4.5,95.2,0,0,0,8
37,2023-02-20T00:36:00,0.7,東南東,1.6,南,4.5,95.2,0,0,0,8
38,2023-02-20T00:37:00,0.7,東南東,1.6,南,4.6,95.4,0,0,0,8
39,2023-02-20T00:38:00,0.6,東,1.6,南,4.5,95.3,0,0,0,8
40,2023-02-20T00:39:00,0.5,東,1.4,東北東,4.5,95.1,0,0,0,8
41,2023-02-20T00:40:00,0.5,東北東,1.4,東北東,4.4,94.9,0,0,0,8
42,2023-02-20T00:41:00,0.5,東北東,1.4,東北東,4.4,95,0,0,0,8
43,2023-02-20T00:42:00,0.5,東北東,1.4,東北東,4.4,95.2,0,0,0,8
44,2023-02-20T00:43:00,0.4,東北東,1.4,東北東,4.4,95.3,0,0,0,8
45,2023-02-20T00:44:00,0.5,東北東,1.4,北東,4.4,95.2,0,0,0,8
46,2023-02-20T00:45:00,0.6,東北東,1.4,北東,4.4,95.1,0,0,0,8
47,2023-02-20T00:46:00,0.6,北東,1.4,北東,4.4,95.3,0,0,0,8
48,2023-02-20T00:47:00,0.7,北東,1.4,北東,4.5,95.4,0,0,0,8
49,2023-02-20T00:48:00,0.8,東北東,1.4,北東,4.5,95.3,0,0,0,8
50,2023-02-20T00:49:00,0.8,東北東,1.4,北東,4.5,95.4,0,0,0,8
51,2023-02-20T00:50:00,0.8,東北東,1.4,北東,4.4,95.2,0,0,0,8
52,2023-02-20T00:51:00,0.8,東,1.4,北東,4.3,95,0,0,0,8
53,2023-02-20T00:52:00,0.9,東南東,1.5,東南東,4.3,94.9,0,0,0,8
54,2023-02-20T00:53:00,1,東南東,1.5,東南東,4.2,95,0,0,0,8
55,2023-02-20T00:54:00,0.9,南東,1.5,東南東,4.2,95,0,0,0,8
56,2023-02-20T00:55:00,0.8,南東,1.5,東南東,4.2,95.1,0,0,0,8
57,2023-02-20T00:56:00,0.7,南東,1.5,東南東,4.2,95.2,0,0,0,8
58,2023-02-20T00:57:00,0.7,南東,1.5,東南東,4.2,95.2,0,0,0,8
59,2023-02-20T00:58:00,0.7,南東,1.5,東南東,4.2,95.2,0,0,0,8
60,2023-02-20T00:59:00,0.7,南東,1.5,東南東,4.2,95.2,0,0,0,8
61,2023-02-20T01:00:00,0.7,東南東,1.5,東南東,4.2,95.2,0,0,0,8
62,2023-02-20T01:01:00,0.7,東南東,1.5,東南東,4.2,95.2,0,0,0,8
63,2023-02-20T01:02:00,0.6,東南東,1.5,南東,4.2,95.2,0,0,0,8
64,2023-02-20T01:03:00,0.5,東,1.2,東,4.3,95.3,0,0,0,8
65,2023-02-20T01:04:00,0.5,東,1.2,東,4.3,95.3,0,0,0,8
66,2023-02-20T01:05:00,0.5,東南東,1.2,東,4.4,95.5,0,0,0,8
67,2023-02-20T01:06:00,0.5,東,1.2,東,4.3,95.5,0,0,0,8
68,2023-02-20T01:07:00,0.4,東,1.2,東,4.3,95.3,0,0,0,8
69,2023-02-20T01:08:00,0.4,東,1.2,東,4.2,95.2,0,0,0,8
70,2023-02-20T01:09:00,0.3,東,0.8,東北東,4.3,95.1,0,0,0,8
71,2023-02-20T01:10:00,0.2,静穏,0.6,東南東,4.3,95.4,0,0,0,8
72,2023-02-20T01:11:00,0.3,東,0.7,北西,4.2,95.2,0,0,0,8
73,2023-02-20T01:12:00,0.3,東北東,0.7,北西,4.2,95.2,0,0,0,8
74,2023-02-20T01:13:00,0.3,東北東,0.8,北西,4.2,95.3,0,0,0,8
75,2023-02-20T01:14:00,0.4,北北東,1.2,北西,4.2,95.3,0,0,0,8
76,2023-02-20T01:15:00,0.4,北,1.2,北西,4.2,95.3,0,0,0,8
77,2023-02-20T01:16:00,0.4,北,1.2,北西,4.2,95.4,0,0,0,8
78,2023-02-20T01:17:00,0.4,北北西,1.2,北西,4.2,95.4,0,0,0,8
79,2023-02-20T01:18:00,0.5,北西,1.2,北西,4.2,95.4,0,0,0,8
80,2023-02-20T01:19:00,0.5,北西,1.2,北西,4.2,95.3,0,0,0,8
81,2023-02-20T01:20:00,0.6,北西,1.2,北西,4.2,95.3,0,0,0,8
82,2023-02-20T01:21:00,0.5,北西,1.2,北西,4.1,95.4,0,0,0,8
83,2023-02-20T01:22:00,0.5,北西,1.2,北西,4,95.2,0,0,0,8
84,2023-02-20T01:23:00,0.5,北西,1.2,北西,4.1,95.2,0,0,0,8
85,2023-02-20T01:24:00,0.4,北北西,1.1,北北西,4.1,95.4,0,0,0,8
86,2023-02-20T01:25:00,0.4,北北西,0.9,東北東,4.1,95.5,0,0,0,8
87,2023-02-20T01:26:00,0.4,北,1.1,東,4,95.3,0,0,0,8
88,2023-02-20T01:27:00,0.5,北北東,1.1,東,4,95.3,0,0,0,8
89,2023-02-20T01:28:00,0.5,東北東,1.2,東,4,95.2,0,0,0,8
90,2023-02-20T01:29:00,0.6,東北東,1.4,東,4,95.4,0,0,0,8
91,2023-02-20T01:30:00,0.6,東,1.4,東,4.1,95.4,0,0,0,8
92,2023-02-20T01:31:00,0.8,東,1.7,南東,4,95.5,0,0,0,8
93,2023-02-20T01:32:00,0.9,東,1.7,南東,3.9,95.4,0,0,0,8
94,2023-02-20T01:33:00,0.9,東南東,1.7,南東,4,95.4,0,0,0,8
95,2023-02-20T01:34:00,0.9,東南東,1.7,南東,4,95.5,0,0,0,8
96,2023-02-20T01:35:00,0.9,南東,1.7,南東,4.1,95.5,0,0,0,8
97,2023-02-20T01:36:00,0.9,南東,1.7,南東,4.1,95.6,0,0,0,8
98,2023-02-20T01:37:00,0.9,南東,1.7,南東,4,95.5,0,0,0,8
99,2023-02-20T01:38:00,0.8,南東,1.7,南東,4,95.5,0,0,0,8
100,2023-02-20T01:39:00,0.7,南南東,1.7,南東,4,95.5,0,0,0,8
101,2023-02-20T01:40:00,0.6,南南東,1.7,南東,4,95.6,0,0,0,8
102,2023-02-20T01:41:00,0.5,南南東,1.7,南東,4,95.6,0,0,0,8
103,2023-02-20T01:42:00,0.4,南,1.6,南南東,4.1,95.6,0,0,0,8
104,2023-02-20T01:43:00,0.3,南,0.9,南東,4.1,95.7,0,0,0,8
105,2023-02-20T01:44:00,0.3,南南西,0.9,南東,4,95.6,0,0,0,8
106,2023-02-20T01:45:00,0.3,南南西,0.9,南東,3.9,95.5,0,0,0,8
107,2023-02-20T01:46:00,0.3,南西,0.9,南東,4,95.5,0,0,0,8
108,2023-02-20T01:47:00,0.2,静穏,0.6,西北西,3.9,95.5,0,0,0,8
109,2023-02-20T01:48:00,0.2,静穏,0.6,西北西,4,95.5,0,0,0,8
110,2023-02-20T01:49:00,0.2,静穏,0.6,西北西,3.9,95.5,0,0,0,8
111,2023-02-20T01:50:00,0.2,静穏,0.4,北北西,3.9,95.5,0,0,0,8
112,2023-02-20T01:51:00,0.2,静穏,0.4,北北西,3.9,95.6,0,0,0,8
113,2023-02-20T01:52:00,0.1,静穏,0.4,北北西,3.8,95.5,0,0,0,8
114,2023-02-20T01:53:00,0.1,静穏,0.4,北北西,3.8,95.4,0,0,0,8
115,2023-02-20T01:54:00,0.1,静穏,0.4,北北西,3.9,95.5,0,0,0,8
116,2023-02-20T01:55:00,0.1,静穏,0.4,北北西,3.9,95.7,0,0,0,8
117,2023-02-20T01:56:00,0.1,静穏,0.4,北北西,3.9,95.7,0,0,0,8
118,2023-02-20T01:57:00,0.1,静穏,0.4,北北西,4,95.8,0,0,0,8
119,2023-02-20T01:58:00,0.1,静穏,0.5,南南東,4,95.8,0,0,0,8
120,2023-02-20T01:59:00,0.1,静穏,0.5,南南東,4,95.8,0,0,0,8
121,2023-02-20T02:00:00,0.1,静穏,0.5,南南東,4,95.8,0,0,0,8
122,2023-02-20T02:01:00,0.1,静穏,0.5,南南東,3.9,95.8,0,0,0,8
123,2023-02-20T02:02:00,0.1,静穏,0.5,南南東,3.9,95.6,0,0,0,8
124,2023-02-20T02:03:00,0.1,静穏,0.5,南南東,3.9,95.6,0,0,0,8
125,2023-02-20T02:04:00,0.1,静穏,0.5,南南東,3.9,95.8,0,0,0,8
126,2023-02-20T02:05:00,0.2,静穏,0.5,南南東,3.9,95.8,0,0,0,8
127,2023-02-20T02:06:00,0.2,静穏,0.5,南南東,3.8,95.7,0,0,0,8
128,2023-02-20T02:07:00,0.2,静穏,0.5,南南東,3.8,95.6,0,0,0,8
129,2023-02-20T02:08:00,0.2,静穏,0.5,北北西,3.8,95.6,0,0,0,8
130,2023-02-20T02:09:00,0.2,静穏,0.5,北北西,3.8,95.7,0,0,0,8
131,2023-02-20T02:10:00,0.2,静穏,0.5,北北西,3.8,95.7,0,0,0,8
132,2023-02-20T02:11:00,0.3,北北西,0.8,南西,3.8,95.7,0,0,0,8
133,2023-02-20T02:12:00,0.3,北西,1.2,南西,3.8,95.8,0,0,0,8
134,2023-02-20T02:13:00,0.5,西,1.6,南南西,3.9,95.8,0,0,0,8
135,2023-02-20T02:14:00,0.6,西南西,1.8,南南西,4,95.9,0,0,0,8
136,2023-02-20T02:15:00,0.7,南西,1.8,南南西,4.1,96,0,0,0,8
137,2023-02-20T02:16:00,0.7,南西,1.8,南南西,4.1,96.1,0,0,0,8
138,2023-02-20T02:17:00,0.7,南西,1.8,南南西,4.1,96.1,0,0,0,8
139,2023-02-20T02:18:00,0.8,南南西,1.8,南南西,4.1,96,0,0,0,8
140,2023-02-20T02:19:00,1,南,2.3,北北東,4,95.9,0,0,0,8
141,2023-02-20T02:20:00,1.2,南南東,2.5,北東,3.9,95.8,0,0,0,8
142,2023-02-20T02:21:00,1.3,東,2.6,北東,3.9,95.7,0,0,0,8
143,2023-02-20T02:22:00,1.5,東北東,3,北東,3.9,95.8,0,0,0,8
144,2023-02-20T02:23:00,1.6,北東,3,北東,3.8,95.7,0,0,0,8
145,2023-02-20T02:24:00,1.6,北東,3,北東,3.8,95.6,0,0,0,8
146,2023-02-20T02:25:00,1.6,北東,3,北東,3.8,95.7,0,0,0,8
147,2023-02-20T02:26:00,1.6,北東,3,北東,3.8,95.8,0,0,0,8
148,2023-02-20T02:27:00,1.6,北東,3,北東,3.9,95.9,0,0,0,8
149,2023-02-20T02:28:00,1.5,北東,3,北東,3.9,96,0,0,0,8
150,2023-02-20T02:29:00,1.3,東北東,3,北東,3.9,96.1,0,0,0,8
151,2023-02-20T02:30:00,1.2,東北東,3,北東,4,96.1,0,0,0,8
152,2023-02-20T02:31:00,1.1,東,3,北東,4,96.1,0,0,0,8
153,2023-02-20T02:32:00,1,東南東,2.7,北東,3.9,96,0,0,0,8
154,2023-02-20T02:33:00,0.9,南東,2.4,北東,3.9,95.9,0,0,0,8
155,2023-02-20T02:34:00,0.8,南南東,1.6,南南東,3.9,95.9,0,0,0,8
156,2023-02-20T02:35:00,0.9,南,1.8,南南西,3.9,96,0,0,0,8
157,2023-02-20T02:36:00,1,南,2.1,南南西,3.9,96,0,0,0,8
158,2023-02-20T02:37:00,1.2,南南西,2.1,南南西,3.9,95.9,0,0,0,8
159,2023-02-20T02:38:00,1.3,南,2.1,南南西,3.9,96,0,0,0,8
160,2023-02-20T02:39:00,1.3,南,2.1,南南西,4,96.1,0,0,0,8
161,2023-02-20T02:40:00,1.2,南南西,2.1,南南西,4.1,96.1,0,0,0,8
162,2023-02-20T02:41:00,1.1,南南西,2.1,南南西,4.4,96.4,0,0,0,8
163,2023-02-20T02:42:00,1,南南西,2.1,南南西,4.3,96.5,0,0,0,8
164,2023-02-20T02:43:00,0.9,南南西,2.1,南南西,4.1,96.1,0,0,0,8
165,2023-02-20T02:44:00,0.9,南南西,2.1,南南西,3.9,95.8,0,0,0,8
166,2023-02-20T02:45:00,0.9,南西,2.1,南南西,3.9,95.7,0,0,0,8
167,2023-02-20T02:46:00,0.8,北北東,2.1,南,3.8,95.7,0,0,0,8
168,2023-02-20T02:47:00,0.7,北北東,2.1,南,3.8,95.7,0,0,0,8
169,2023-02-20T02:48:00,0.6,北北東,1.4,南,3.8,95.8,0,0,0,8
170,2023-02-20T02:49:00,0.6,北北東,1.4,南,3.8,95.8,0,0,0,8
171,2023-02-20T02:50:00,0.6,北北東,1.2,北,3.8,95.9,0,0,0,8
172,2023-02-20T02:51:00,0.7,北北東,1.2,北,3.8,95.9,0,0,0,8
173,2023-02-20T02:52:00,0.7,北,1.2,北,3.9,96,0,0,0,8
174,2023-02-20T02:53:00,0.6,北,1.2,北,3.9,96.1,0,0,0,8
175,2023-02-20T02:54:00,0.6,北,1.2,北,3.9,96.2,0,0,0,8
176,2023-02-20T02:55:00,0.5,北,1.1,北北東,4,96.2,0,0,0,8
177,2023-02-20T02:56:00,0.4,北,0.8,北東,4,96.2,0,0,0,8
178,2023-02-20T02:57:00,0.3,北北西,1.1,北西,4,96.1,0,0,0,8
179,2023-02-20T02:58:00,0.3,北北西,1.1,北西,3.9,96.1,0,0,0,8
180,2023-02-20T02:59:00,0.3,北西,1.1,北西,4.1,96.2,0,0,0,8
181,2023-02-20T03:00:00,0.3,西北西,1.1,北西,4,96.2,0,0,0,8
182,2023-02-20T03:01:00,0.2,静穏,1.1,北西,4,96.1,0,0,0,8
183,2023-02-20T03:02:00,0.2,静穏,1.1,北西,4.1,96.1,0,0,0,8
184,2023-02-20T03:03:00,0.3,東南東,1.6,東南東,4,96.2,0,0,0,8
185,2023-02-20T03:04:00,0.4,東南東,1.7,東南東,3.9,96.1,0,0,0,8
186,2023-02-20T03:05:00,0.5,東南東,1.7,東南東,3.9,95.9,0,0,0,8
187,2023-02-20T03:06:00,0.6,東南東,1.7,東南東,3.8,95.9,0,0,0,8
188,2023-02-20T03:07:00,0.6,東南東,1.7,東南東,3.9,96,0,0,0,8
189,2023-02-20T03:08:00,0.6,東南東,1.7,東南東,3.9,96.1,0,0,0,8
190,2023-02-20T03:09:00,0.6,東,1.7,東南東,3.8,96,0,0,0,8
191,2023-02-20T03:10:00,0.7,東,1.7,東南東,3.8,95.9,0,0,0,8
192,2023-02-20T03:11:00,0.7,東,1.7,東南東,3.8,96,0,0,0,8
193,2023-02-20T03:12:00,0.7,東,1.7,東南東,3.9,96.1,0,0,0,8
194,2023-02-20T03:13:00,0.6,東,1.7,東南東,3.8,96.1,0,0,0,8
195,2023-02-20T03:14:00,0.5,東,1.3,東南東,3.8,96.1,0,0,0,8
196,2023-02-20T03:15:00,0.5,東,1,東北東,3.8,96,0,0,0,8
197,2023-02-20T03:16:00,0.5,東北東,1,東北東,3.7,96,0,0,0,8
198,2023-02-20T03:17:00,0.5,東北東,1,東北東,3.9,96.1,0,0,0,8
199,2023-02-20T03:18:00,0.4,東,0.9,東,3.9,96.2,0,0,0,8
200,2023-02-20T03:19:00,0.3,東,0.8,東北東,4,96.3,0,0,0,8
201,2023-02-20T03:20:00,0.3,東,0.8,東北東,3.9,96.3,0,0,0,8
202,2023-02-20T03:21:00,0.3,東南東,0.8,東北東,3.9,96.1,0,0,0,8
203,2023-02-20T03:22:00,0.3,南東,0.8,東北東,3.9,96.1,0,0,0,8
204,2023-02-20T03:23:00,0.3,南南東,0.8,東北東,3.9,96.2,0,0,0,8
205,2023-02-20T03:24:00,0.3,南南東,0.8,東北東,3.9,96.2,0,0,0,8
206,2023-02-20T03:25:00,0.3,南南東,0.6,南,3.9,96.2,0,0,0,8
207,2023-02-20T03:26:00,0.3,南南東,0.6,南,3.9,96.1,0,0,0,8
208,2023-02-20T03:27:00,0.3,南東,0.8,北東,3.9,96.1,0,0,0,8
209,2023-02-20T03:28:00,0.4,東南東,0.8,北東,3.8,96.1,0,0,0,8
210,2023-02-20T03:29:00,0.4,東,0.8,北東,3.8,96,0,0,0,8
211,2023-02-20T03:30:00,0.5,東北東,0.8,北東,3.8,96,0,0,0,8
212,2023-02-20T03:31:00,0.5,東北東,0.8,北東,3.8,96.1,0,0,0,8
213,2023-02-20T03:32:00,0.5,北東,0.8,北東,3.8,96.1,0,0,0,8
214,2023-02-20T03:33:00,0.6,北東,1,北北東,3.8,96.1,0,0,0,8
215,2023-02-20T03:34:00,0.7,北東,1.1,北東,3.8,96.2,0,0,0,8
216,2023-02-20T03:35:00,0.7,北東,1.2,北東,3.8,96.2,0,0,0,8
217,2023-02-20T03:36:00,0.8,北東,1.3,北東,3.8,96.2,0,0,0,8
218,2023-02-20T03:37:00,0.9,北東,1.4,北東,3.8,96.2,0,0,0,8
219,2023-02-20T03:38:00,0.9,北東,1.5,北東,3.8,96.2,0,0,0,8
220,2023-02-20T03:39:00,1,北東,1.5,北東,3.8,96.2,0,0,0,8
221,2023-02-20T03:40:00,1,北東,1.5,北東,3.8,96.2,0,0,0,8
222,2023-02-20T03:41:00,1,北東,1.5,北東,3.8,96.2,0,0,0,8
223,2023-02-20T03:42:00,1,北東,1.5,北東,3.8,96.2,0,0,0,8
224,2023-02-20T03:43:00,1,東北東,1.5,北東,3.8,96.2,0,0,0,8
225,2023-02-20T03:44:00,1,東北東,1.5,北東,3.8,96.1,0,0,0,8
226,2023-02-20T03:45:00,1.1,東北東,1.7,北東,3.7,96.1,0,0,0,8
227,2023-02-20T03:46:00,1.1,東北東,1.7,北東,3.7,96.1,0,0,0,8
228,2023-02-20T03:47:00,1,東北東,1.7,北東,3.7,96.1,0,0,0,8
229,2023-02-20T03:48:00,1.1,東北東,1.9,東北東,3.8,96.2,0,0,0,8
230,2023-02-20T03:49:00,1.1,東北東,1.9,東北東,3.8,96.2,0,0,0,8
231,2023-02-20T03:50:00,1.1,東北東,1.9,東北東,3.8,96.2,0,0,0,8
232,2023-02-20T03:51:00,1.2,東北東,2.4,北東,3.8,96.2,0,0,0,8
233,2023-02-20T03:52:00,1.3,東北東,2.4,北東,3.8,96.2,0,0,0,8
234,2023-02-20T03:53:00,1.3,東北東,2.4,北東,3.8,96.2,0,0,0,8
235,2023-02-20T03:54:00,1.4,北東,2.4,北東,3.8,96.2,0,0,0,8
236,2023-02-20T03:55:00,1.4,北東,2.4,北東,3.8,96.2,0,0,0,8
237,2023-02-20T03:56:00,1.4,北東,2.4,北東,3.8,96.2,0,0,0,8
238,2023-02-20T03:57:00,1.3,北東,2.4,北東,3.8,96.3,0,0,0,8
239,2023-02-20T03:58:00,1.3,北東,2.4,北東,3.8,96.3,0,0,0,8
240,2023-02-20T03:59:00,1.2,北東,2.4,北東,3.8,96.3,0,0,0,8
241,2023-02-20T04:00:00,1,東北東,2.4,北東,3.9,96.3,0,0,0,8
242,2023-02-20T04:01:00,0.9,東北東,2,北東,3.9,96.4,0,0,0,8
243,2023-02-20T04:02:00,0.8,東北東,2,北東,4,96.4,0,0,0,8
244,2023-02-20T04:03:00,0.7,東,2,北東,3.9,96.3,0,0,0,8
245,2023-02-20T04:04:00,0.6,東,2,北東,4,96.3,0,0,0,8
246,2023-02-20T04:05:00,0.5,東,1.4,北東,3.9,96.4,0,0,0,8
247,2023-02-20T04:06:00,0.5,東南東,1.2,東南東,4,96.3,0,0,0,8
248,2023-02-20T04:07:00,0.4,東南東,1.2,東南東,4,96.4,0,0,0,8
249,2023-02-20T04:08:00,0.4,東南東,1.2,東南東,3.9,96.3,0,0,0,8
250,2023-02-20T04:09:00,0.3,東,1.2,東南東,3.9,96.2,0,0,0,8
251,2023-02-20T04:10:00,0.3,東,1.2,東南東,3.9,96.2,0,0,0,8
252,2023-02-20T04:11:00,0.4,東,1.2,東南東,3.9,96.2,0,0,0,8
253,2023-02-20T04:12:00,0.3,東北東,0.7,南東,3.9,96.2,0,0,0,8
254,2023-02-20T04:13:00,0.3,東北東,0.7,南東,4.1,96.3,0,0,0,8
255,2023-02-20T04:14:00,0.2,静穏,0.7,南東,4.1,96.5,0,0,0,8
256,2023-02-20T04:15:00,0.3,東北東,1,東南東,4.1,96.4,0,0,0,8
257,2023-02-20T04:16:00,0.3,東北東,1,東南東,4.1,96.4,0,0,0,8
258,2023-02-20T04:17:00,0.4,東北東,1,東南東,4.1,96.4,0,0,0,8
259,2023-02-20T04:18:00,0.4,東,1,東南東,4.1,96.4,0,0,0,8
260,2023-02-20T04:19:00,0.5,東,1.2,東南東,4.1,96.4,0,0,0,8
261,2023-02-20T04:20:00,0.6,東,1.5,南南東,4.1,96.3,0,0,0,8
262,2023-02-20T04:21:00,0.6,東南東,1.5,南南東,4.1,96.3,0,0,0,8
263,2023-02-20T04:22:00,0.7,東南東,1.5,南南東,4.1,96.3,0,0,0,8
264,2023-02-20T04:23:00,0.7,東南東,1.5,南南東,4.1,96.3,0,0,0,8
265,2023-02-20T04:24:00,0.7,東南東,1.5,南南東,4.2,96.3,0,0,0,8
266,2023-02-20T04:25:00,0.7,東南東,1.5,南南東,4.2,96.4,0,0,0,8
267,2023-02-20T04:26:00,0.6,南東,1.5,南南東,4.2,96.4,0,0,0,8
268,2023-02-20T04:27:00,0.6,南東,1.5,南南東,4.1,96.3,0,0,0,8
269,2023-02-20T04:28:00,0.6,南東,1.5,南南東,4.1,96.3,0,0,0,8
270,2023-02-20T04:29:00,0.5,南東,1.5,南南東,4.1,96.3,0,0,0,8
271,2023-02-20T04:30:00,0.4,東南東,1.2,東南東,4.1,96.2,0,0,0,8
272,2023-02-20T04:31:00,0.5,東南東,1.5,北東,4.1,96.3,0,0,0,8
273,2023-02-20T04:32:00,0.6,東,1.7,北東,4,96.2,0,0,0,8
274,2023-02-20T04:33:00,0.7,東,1.9,北北東,4,96.2,0,0,0,8
275,2023-02-20T04:34:00,0.8,東北東,1.9,北北東,4,96.2,0,0,0,8
276,2023-02-20T04:35:00,0.9,北東,1.9,北北東,4,96.2,0,0,0,8
277,2023-02-20T04:36:00,1,北東,1.9,北北東,4,96.2,0,0,0,8
278,2023-02-20T04:37:00,1.1,北東,1.9,北北東,4,96.2,0,0,0,8
279,2023-02-20T04:38:00,1.3,北北東,2.5,北北東,4,96.2,0,0,0,8
280,2023-02-20T04:39:00,1.4,北東,2.5,北北東,4,96.2,0,0,0,8
281,2023-02-20T04:40:00,1.5,北北東,2.5,北北東,4,96.3,0,0,0,8
282,2023-02-20T04:41:00,1.6,北北東,2.5,北北東,4,96.3,0,0,0,8
283,2023-02-20T04:42:00,1.5,北北東,2.5,北北東,3.9,96.3,0,0,0,8
284,2023-02-20T04:43:00,1.3,北北東,2.5,北北東,3.9,96.3,0,0,0,8
285,2023-02-20T04:44:00,1.2,北北東,2.5,北北東,4,96.3,0,0,0,8
286,2023-02-20T04:45:00,1.1,北北東,2.5,北北東,4,96.3,0,0,0,8
287,2023-02-20T04:46:00,1,北,2.5,北北東,4,96.3,0,0,0,8
288,2023-02-20T04:47:00,0.9,北,2.5,北北東,4,96.3,0,0,0,8
289,2023-02-20T04:48:00,0.7,北,2.2,北東,4,96.3,0,0,0,8
290,2023-02-20T04:49:00,0.6,北北西,2.2,北東,4,96.3,0,0,0,8
291,2023-02-20T04:50:00,0.5,北西,1.8,北東,4,96.3,0,0,0,8
292,2023-02-20T04:51:00,0.3,西北西,1.1,東北東,4.1,96.4,0,0,0,8
293,2023-02-20T04:52:00,0.3,西北西,0.7,南南西,4.1,96.4,0,0,0,8
294,2023-02-20T04:53:00,0.3,西北西,0.7,南南西,4,96.3,0,0,0,8
295,2023-02-20T04:54:00,0.3,西北西,0.7,南南西,4,96.3,0,0,0,8
296,2023-02-20T04:55:00,0.3,西北西,0.7,南南西,4,96.3,0,0,0,8
297,2023-02-20T04:56:00,0.3,西北西,0.7,南南西,4,96.3,0,0,0,8
298,2023-02-20T04:57:00,0.4,西北西,0.8,北西,4,96.3,0,0,0,8
299,2023-02-20T04:58:00,0.4,西北西,0.8,北西,4,96.3,0,0,0,8
300,2023-02-20T04:59:00,0.4,北西,0.8,北西,4,96.3,0,0,0,8
301,2023-02-20T05:00:00,0.4,北西,0.8,北西,4,96.3,0,0,0,8
302,2023-02-20T05:01:00,0.5,北北西,0.8,北西,4,96.3,0,0,0,8
303,2023-02-20T05:02:00,0.6,北北西,1,北東,4,96.3,0,0,0,8
304,2023-02-20T05:03:00,0.6,北北西,1.1,北東,4,96.3,0,0,0,8
305,2023-02-20T05:04:00,0.7,北,1.1,北東,4,96.3,0,0,0,8
306,2023-02-20T05:05:00,0.7,北,1.1,北東,4.1,96.3,0,0,0,8
307,2023-02-20T05:06:00,0.7,北北東,1.1,北東,4.1,96.4,0,0,0,8
308,2023-02-20T05:07:00,0.6,北北東,1.1,北東,4.1,96.4,0,0,0,8
309,2023-02-20T05:08:00,0.6,北北東,1.1,北東,4.1,96.4,0,0,0,8
310,2023-02-20T05:09:00,0.5,北東,1.1,北東,4.1,96.4,0,0,0,8
311,2023-02-20T05:10:00,0.5,北東,1.1,北東,4.1,96.4,0,0,0,8
312,2023-02-20T05:11:00,0.4,東北東,1.1,北東,4.2,96.4,0,0,0,8
313,2023-02-20T05:12:00,0.4,東北東,1.1,北東,4.1,96.4,0,0,0,8
314,2023-02-20T05:13:00,0.4,東,1.1,北東,4.2,96.4,0,0,0,8
315,2023-02-20T05:14:00,0.4,東,1.2,南南東,4.3,96.5,0,0,0,8
316,2023-02-20T05:15:00,0.4,東南東,1.2,南南東,4.3,96.5,0,0,0,8
317,2023-02-20T05:16:00,0.4,東南東,1.3,南東,4.3,96.5,0,0,0,8
318,2023-02-20T05:17:00,0.5,東南東,1.4,南東,4.3,96.4,0,0,0,8
319,2023-02-20T05:18:00,0.6,南東,1.6,南南東,4.3,96.4,0,0,0,8
320,2023-02-20T05:19:00,0.6,南東,1.6,南南東,4.3,96.4,0,0,0,8
321,2023-02-20T05:20:00,0.7,南東,1.6,南南東,4.3,96.4,0,0,0,8
322,2023-02-20T05:21:00,0.7,南東,1.6,南南東,4.3,96.4,0,0,0,8
323,2023-02-20T05:22:00,0.7,南東,1.6,南南東,4.3,96.4,0,0,0,8
324,2023-02-20T05:23:00,0.7,南東,1.6,南南東,4.3,96.4,0,0,0,8
325,2023-02-20T05:24:00,0.6,南東,1.6,南南東,4.3,96.4,0,0,0,8
326,2023-02-20T05:25:00,0.6,南東,1.6,南南東,4.3,96.3,0,0,0,8
327,2023-02-20T05:26:00,0.6,東南東,1.6,南南東,4.2,96.3,0,0,0,8
328,2023-02-20T05:27:00,0.5,東南東,1.6,南南東,4.2,96.2,0,0,0,8
329,2023-02-20T05:28:00,0.5,東南東,1.4,南南東,4.2,96.2,0,0,0,8
330,2023-02-20T05:29:00,0.5,東南東,1.2,南南東,4.1,96.2,0,0,0,8
331,2023-02-20T05:30:00,0.4,東,0.9,東南東,4.1,96.2,0,0,0,8
332,2023-02-20T05:31:00,0.4,東,0.9,東南東,4.1,96.2,0,0,0,8
333,2023-02-20T05:32:00,0.4,東,0.8,東北東,4.1,96.2,0,0,0,8
334,2023-02-20T05:33:00,0.4,東,0.8,東北東,4.3,96.4,0,0,0,8
335,2023-02-20T05:34:00,0.3,東,0.8,東北東,4.3,96.5,0,0,0,8
336,2023-02-20T05:35:00,0.3,東北東,0.8,東北東,4.3,96.5,0,0,0,8
337,2023-02-20T05:36:00,0.3,東北東,0.8,東北東,4.2,96.4,0,0,0,8
338,2023-02-20T05:37:00,0.2,静穏,0.6,東,4.2,96.3,0,0,0,8
339,2023-02-20T05:38:00,0.2,静穏,0.6,東,4.3,96.3,0,0,0,8
340,2023-02-20T05:39:00,0.2,静穏,0.7,東北東,4.2,96.3,0,0,0,8
341,2023-02-20T05:40:00,0.2,静穏,1.2,東北東,4.2,96.2,0,0,0,8
342,2023-02-20T05:41:00,0.3,東,1.2,東北東,4.1,96.2,0,0,0,8
343,2023-02-20T05:42:00,0.4,東北東,1.3,北東,4.1,96.2,0,0,0,8
344,2023-02-20T05:43:00,0.5,東北東,1.5,東北東,4.1,96.2,0,0,0,8
345,2023-02-20T05:44:00,0.6,東北東,1.5,東北東,4.1,96.2,0,0,0,8
346,2023-02-20T05:45:00,0.7,東北東,1.5,東北東,4.1,96.2,0,0,0,8
347,2023-02-20T05:46:00,0.8,東,1.5,東北東,4.1,96.3,0,0,0,8
348,2023-02-20T05:47:00,0.9,東北東,1.5,東北東,4.2,96.3,0,0,0,8
349,2023-02-20T05:48:00,1,東北東,1.5,東北東,4.2,96.3,0,0,0,8
350,2023-02-20T05:49:00,,"",,"",,,,,,
351,2023-02-20T05:50:00,1.1,東,1.5,東北東,4.2,96.4,0,0,0,8
352,2023-02-20T05:51:00,1,東,1.5,東北東,4.2,96.4,0,0,0,8
353,2023-02-20T05:52:00,1,東南東,1.5,東北東,4.3,96.3,0,0,0,8
354,2023-02-20T05:53:00,0.9,東南東,1.5,東北東,4.3,96.4,0,0,0,8
355,2023-02-20T05:54:00,0.7,南東,1.4,南東,4.4,96.4,0,0,0,8
356,2023-02-20T05:55:00,0.7,南東,1.4,南東,4.3,96.5,0,0,0,8
357,2023-02-20T05:56:00,0.7,南東,1.4,南東,4.3,96.4,0,0,0,8
358,2023-02-20T05:57:00,0.6,南東,1.4,南東,4.3,96.3,0,0,0,8
359,2023-02-20T05:58:00,0.6,南東,1.4,南東,4.3,96.4,0,0,0,8
360,2023-02-20T05:59:00,0.6,南東,1.4,南東,4.3,96.3,0,0,0,8
361,2023-02-20T06:00:00,0.6,南東,1.3,南東,4.3,96.3,0,0,0,8
362,2023-02-20T06:01:00,0.6,南東,1.2,東南東,4.3,96.3,0,0,0,8
363,2023-02-20T06:02:00,0.6,東南東,1.2,東南東,4.4,96.3,0,0,0,8
364,2023-02-20T06:03:00,0.7,東南東,1.3,南東,4.3,96.3,0,0,0,8
365,2023-02-20T06:04:00,0.7,東南東,1.3,南東,4.4,96.3,0,0,0,8
366,2023-02-20T06:05:00,0.8,東南東,1.3,南東,4.4,96.4,0,0,0,8
367,2023-02-20T06:06:00,0.8,東南東,1.3,南東,4.4,96.4,0,0,0,8
368,2023-02-20T06:07:00,0.8,東南東,1.3,南東,4.4,96.3,0,0,0,8
369,2023-02-20T06:08:00,0.8,東南東,1.3,南東,4.4,96.4,0,0,0,8
370,2023-02-20T06:09:00,0.7,東南東,1.3,南東,4.5,96.4,0,0,0,8
371,2023-02-20T06:10:00,0.7,東南東,1.3,南東,4.5,96.4,0,0,0,8
372,2023-02-20T06:11:00,0.6,東南東,1.3,南東,4.4,96.3,0,0,0,8
373,2023-02-20T06:12:00,0.5,東,1.3,南東,4.4,96.2,0,0,0,8
374,2023-02-20T06:13:00,0.4,東,1.1,東南東,4.7,96.4,0,0,0,8
375,2023-02-20T06:14:00,0.3,東,1.1,東南東,4.5,96.5,0,0,0,8
376,2023-02-20T06:15:00,0.3,東北東,1.1,東南東,4.4,96.2,0,0,0,8
377,2023-02-20T06:16:00,0.3,東北東,0.8,南東,4.3,96.1,0,0,0,8
378,2023-02-20T06:17:00,0.3,北東,0.7,東北東,4.3,96.1,0,0,0,8
379,2023-02-20T06:18:00,0.2,静穏,0.5,北北西,4.3,96.1,0,0,0,8
380,2023-02-20T06:19:00,0.3,北北東,0.6,西北西,4.2,96.1,0,0,0,8
381,2023-02-20T06:20:00,0.3,北,1,西,4.2,96.1,0,0,0,8
382,2023-02-20T06:21:00,0.4,北,1.6,西,4.3,96.2,0,0,0,8
383,2023-02-20T06:22:00,0.6,北北西,1.9,西南西,4.3,96.2,0,0,0,8
384,2023-02-20T06:23:00,0.8,北北西,2.2,西南西,4.3,96.3,0,0,0,8
385,2023-02-20T06:24:00,0.8,北西,2.2,西南西,4.3,96.3,0,0,0,8
386,2023-02-20T06:25:00,0.9,西北西,2.2,西南西,4.4,96.3,0,0,0,8
387,2023-02-20T06:26:00,1,西,2.2,西南西,4.5,96.4,0,0,0,8
388,2023-02-20T06:27:00,1,西,2.2,西南西,4.5,96.5,0,0,0,8
389,2023-02-20T06:28:00,1.1,西南西,2.2,西南西,4.5,96.5,0,0,0,8
390,2023-02-20T06:29:00,1.1,西南西,2.2,西南西,4.6,96.5,0,0,0,8
391,2023-02-20T06:30:00,1,南西,2.2,西南西,4.5,96.4,0,0,0,8
392,2023-02-20T06:31:00,0.9,南西,2.2,西南西,4.5,96.3,0,0,0,8
393,2023-02-20T06:32:00,0.7,南南西,2.2,西南西,4.8,96.5,0,0,0,8
394,2023-02-20T06:33:00,0.6,南,2.1,西南西,4.6,96.6,0,0,0,8
395,2023-02-20T06:34:00,0.6,南南東,2.1,西南西,4.5,96.3,0,0,0,8
396,2023-02-20T06:35:00,0.5,南東,1.2,北北東,4.4,96.1,0,0,0,8
397,2023-02-20T06:36:00,0.5,東南東,1.4,北東,4.4,96.1,0,0,0,8
398,2023-02-20T06:37:00,0.6,東,1.5,北東,4.4,96.1,0,0,0,8
399,2023-02-20T06:38:00,0.7,東北東,1.5,北東,4.3,96.1,0,0,0,8
400,2023-02-20T06:39:00,0.8,東北東,1.5,北東,4.3,96.1,0,0,0,8
401,2023-02-20T06:40:00,0.8,東北東,1.5,北東,4.3,96.1,0,0,0,8
402,2023-02-20T06:41:00,0.9,北東,1.5,北東,4.3,96.1,0,0,0,8
403,2023-02-20T06:42:00,0.9,北東,1.5,北東,4.4,96.2,0,0,0,8
404,2023-02-20T06:43:00,0.8,北東,1.5,北東,4.4,96.3,0,0,0,8
405,2023-02-20T06:44:00,0.8,北東,1.5,北東,4.4,96.3,0,0,0,8
406,2023-02-20T06:45:00,0.7,東北東,1.5,北東,4.4,96.3,0,0,0,8
407,2023-02-20T06:46:00,0.6,東北東,1.5,北東,4.4,96.3,0,0,0,8
408,2023-02-20T06:47:00,0.5,東北東,1.5,北東,4.4,96.2,0,0,0,8
409,2023-02-20T06:48:00,0.4,東北東,1.4,北東,4.5,96.3,0,0,0,8
410,2023-02-20T06:49:00,0.3,東,1.1,北東,4.5,96.3,0,0,0,8
411,2023-02-20T06:50:00,0.3,東,0.9,東,4.4,96.2,0,0,0,8
412,2023-02-20T06:51:00,0.3,東,0.9,東,4.4,96.2,0,0,0,8
413,2023-02-20T06:52:00,0.3,東,0.9,東,4.4,96.2,0,0,0,8
414,2023-02-20T06:53:00,0.3,東,0.9,東,4.4,96.2,0,0,0,8
415,2023-02-20T06:54:00,0.4,東,0.9,東,4.3,96.1,0,0,0,8
416,2023-02-20T06:55:00,0.4,東,0.9,東,4.3,96,0,0,0,8
417,2023-02-20T06:56:00,0.4,東,0.9,東,4.3,96,0,0,0,8
418,2023-02-20T06:57:00,0.5,東,0.9,東,4.3,96.1,0,0,0,8
419,2023-02-20T06:58:00,0.5,東,0.9,東,4.3,96.2,0,0,0,8
420,2023-02-20T06:59:00,0.5,東,1,東南東,4.3,96.2,0,0,0,8
421,2023-02-20T07:00:00,0.5,東,1.1,東南東,4.3,96.1,0,0,0,8
422,2023-02-20T07:01:00,0.6,東,1.1,東南東,4.2,96.1,0,0,0,8
423,2023-02-20T07:02:00,0.7,東,1.1,東南東,4.2,96.1,0,0,0,8
424,2023-02-20T07:03:00,0.7,東,1.1,東南東,4.2,96.1,0,0,0,8
425,2023-02-20T07:04:00,0.7,東,1.1,東南東,4.2,96.1,0,0,0,8
426,2023-02-20T07:05:00,0.8,東,1.4,東,4.2,96.1,0,0,0,8
427,2023-02-20T07:06:00,0.8,東,1.4,東,4.3,96.2,0,0,0,8
428,2023-02-20T07:07:00,0.8,東,1.4,東,4.3,96.3,0,0,0,8
429,2023-02-20T07:08:00,0.7,東,1.4,東,4.3,96.2,0,0,0,8
430,2023-02-20T07:09:00,0.7,東,1.4,東,4.3,96.2,0,0,0,8
431,2023-02-20T07:10:00,0.7,東,1.4,東,4.2,96.1,0,0,0,8
432,2023-02-20T07:11:00,0.7,東南東,1.7,南南東,4.2,96,0,0,0,8
433,2023-02-20T07:12:00,0.7,東南東,1.7,南南東,4.2,96.1,0,0,0,8
434,2023-02-20T07:13:00,0.7,東南東,1.7,南南東,4.2,96.1,0,0,0,8
435,2023-02-20T07:14:00,0.6,東南東,1.7,南南東,4.3,96.2,0,0,0,8
436,2023-02-20T07:15:00,0.6,東南東,2.1,南南東,4.3,96.2,0,0,0,8
437,2023-02-20T07:16:00,0.7,東南東,2.7,東南東,4.3,96.2,0,0,0,8